• In Russia
  • List of Countries
  • For 7 days
  • Water Temperature
  • Satellite Maps
  • Weather Map
  • Weather Widgets
  • user-avatar
    Login

    Hourly Weather Razgrad

    Today, 21 November, Wednesday

    Time Temperature Precipitation Wind Pressure Humidity
    00:00 +4°C° 1.1 mm 4 mps 743 mmHg 94%
    01:00 +4°C° 1.1 mm 4 mps 743 mmHg 94%
    02:00 +4°C° 1.1 mm 4 mps 742 mmHg 95%
    03:00 +5°C° 0.8 mm 4 mps 742 mmHg 95%
    04:00 +5°C° 0.8 mm 3 mps 741 mmHg 95%
    05:00 +5°C° 0.8 mm 3 mps 741 mmHg 96%
    06:00 +5°C° 1.4 mm 3 mps 741 mmHg 96%
    07:00 +5°C° 1.4 mm 4 mps 740 mmHg 96%
    08:00 +6°C° 1.4 mm 4 mps 740 mmHg 96%
    09:00 +6°C° 1.6 mm 4 mps 740 mmHg 95%
    10:00 +6°C° 1.6 mm 4 mps 740 mmHg 95%
    11:00 +6°C° 1.6 mm 4 mps 740 mmHg 95%
    12:00 +6°C° 1.9 mm 4 mps 740 mmHg 95%
    13:00 +6°C° 1.9 mm 5 mps 739 mmHg 94%
    14:00 +6°C° 1.9 mm 5 mps 739 mmHg 94%
    15:00 +6°C° 2 mm 5 mps 739 mmHg 94%
    16:00 +6°C° 2 mm 5 mps 740 mmHg 94%
    17:00 +5°C° 2 mm 5 mps 740 mmHg 94%
    18:00 +5°C° 1.8 mm 5 mps 740 mmHg 93%
    19:00 +5°C° 1.8 mm 5 mps 741 mmHg 93%
    20:00 +3°C° 1.8 mm 5 mps 741 mmHg 92%
    21:00 +3°C° 1.3 mm 5 mps 741 mmHg 92%
    22:00 +3°C° 1.3 mm 5 mps 742 mmHg 92%
    23:00 +2°C° 1.3 mm 5 mps 742 mmHg 91%

    Tomorrow, 22 November, Thursday

    Time Temperature Precipitation Wind Pressure Humidity
    00:00 +2°C° 0.9 mm 5 mps 742 mmHg 91%
    01:00 +3°C° 0.9 mm 4 mps 743 mmHg 91%
    02:00 +1°C° 0.9 mm 4 mps 743 mmHg 91%
    03:00 +1°C° 0.5 mm 4 mps 743 mmHg 91%
    04:00 +1°C° 0.5 mm 4 mps 744 mmHg 91%
    05:00 0°C° 0.5 mm 4 mps 744 mmHg 91%
    06:00 +1°C° 0.3 mm 3 mps 744 mmHg 91%
    07:00 +1°C° 0.3 mm 3 mps 745 mmHg 90%
    08:00 +1°C° 0.3 mm 3 mps 745 mmHg 90%
    09:00 +1°C° 0.2 mm 3 mps 746 mmHg 89%
    10:00 +1°C° 0.2 mm 3 mps 746 mmHg 89%
    11:00 +1°C° 0.2 mm 3 mps 746 mmHg 88%
    12:00 +2°C° 0.1 mm 3 mps 746 mmHg 86%
    13:00 +3°C° 0.1 mm 2 mps 746 mmHg 85%
    14:00 +3°C° 0.1 mm 2 mps 746 mmHg 84%
    15:00 +3°C° 0 mm 2 mps 747 mmHg 84%
    16:00 +3°C° 0 mm 2 mps 747 mmHg 85%
    17:00 +3°C° 0 mm 2 mps 747 mmHg 85%
    18:00 +3°C° 0 mm 2 mps 747 mmHg 86%
    19:00 +3°C° 0 mm 1 mps 748 mmHg 86%
    20:00 +3°C° 0 mm 1 mps 748 mmHg 86%
    21:00 +3°C° 0 mm 1 mps 748 mmHg 87%
    22:00 +2°C° 0 mm 1 mps 748 mmHg 87%
    23:00 +2°C° 0 mm 1 mps 749 mmHg 87%

    Day after tomorrow, 23 November, Friday

    Time Temperature Precipitation Wind Pressure Humidity
    00:00 +2°C° 0 mm 1 mps 749 mmHg 87%
    01:00 +1°C° 0 mm 1 mps 749 mmHg 87%
    02:00 +1°C° 0 mm 1 mps 749 mmHg 87%
    03:00 +1°C° 0 mm 1 mps 749 mmHg 86%
    04:00 +1°C° 0 mm 1 mps 749 mmHg 85%
    05:00 0°C° 0 mm 1 mps 749 mmHg 85%
    06:00 +1°C° 0 mm 1 mps 750 mmHg 83%
    07:00 +1°C° 0 mm 1 mps 750 mmHg 81%
    08:00 +1°C° 0 mm 1 mps 750 mmHg 78%
    09:00 +2°C° 0 mm 1 mps 751 mmHg 70%
    10:00 +3°C° 0 mm 1 mps 751 mmHg 63%
    11:00 +4°C° 0 mm 1 mps 751 mmHg 55%
    12:00 +4°C° 0 mm 2 mps 751 mmHg 53%
    13:00 +5°C° 0 mm 2 mps 751 mmHg 52%
    14:00 +5°C° 0 mm 2 mps 751 mmHg 51%
    15:00 +4°C° 0 mm 2 mps 751 mmHg 56%
    16:00 +4°C° 0 mm 1 mps 751 mmHg 61%
    17:00 +3°C° 0 mm 1 mps 751 mmHg 66%
    18:00 +2°C° 0 mm 1 mps 751 mmHg 67%
    19:00 +2°C° 0 mm 1 mps 751 mmHg 68%
    20:00 +2°C° 0 mm 1 mps 751 mmHg 69%
    21:00 +1°C° 0 mm 1 mps 751 mmHg 69%
    22:00 +1°C° 0 mm 1 mps 752 mmHg 68%
    23:00 +1°C° 0 mm 1 mps 752 mmHg 68%

    24 November, Saturday

    Time Temperature Precipitation Wind Pressure Humidity
    00:00 +1°C° 0 mm 1 mps 751 mmHg 67%
    01:00 +1°C° 0 mm 1 mps 751 mmHg 67%
    02:00 +1°C° 0 mm 1 mps 751 mmHg 66%
    03:00 +1°C° 0 mm 1 mps 751 mmHg 66%
    04:00 +1°C° 0 mm 1 mps 750 mmHg 66%
    05:00 +1°C° 0 mm 1 mps 750 mmHg 66%
    06:00 +1°C° 0 mm 1 mps 750 mmHg 66%
    07:00 +1°C° 0 mm 1 mps 750 mmHg 65%
    08:00 +1°C° 0 mm 1 mps 750 mmHg 65%
    09:00 +3°C° 0 mm 1 mps 750 mmHg 60%
    10:00 +5°C° 0 mm 1 mps 750 mmHg 54%
    11:00 +6°C° 0 mm 2 mps 749 mmHg 49%
    12:00 +6°C° 0 mm 2 mps 749 mmHg 49%
    13:00 +8°C° 0 mm 1 mps 748 mmHg 49%
    14:00 +9°C° 0 mm 1 mps 748 mmHg 49%
    15:00 +8°C° 0 mm 1 mps 747 mmHg 55%
    16:00 +6°C° 0 mm 1 mps 747 mmHg 62%
    17:00 +5°C° 0 mm 1 mps 747 mmHg 69%
    18:00 +4°C° 0 mm 1 mps 747 mmHg 72%
    19:00 +3°C° 0 mm 2 mps 747 mmHg 74%
    20:00 +3°C° 0 mm 2 mps 747 mmHg 77%
    21:00 +3°C° 0 mm 2 mps 746 mmHg 78%
    22:00 +2°C° 0 mm 2 mps 746 mmHg 79%
    23:00 +2°C° 0 mm 2 mps 746 mmHg 80%

    25 November, Sunday

    Time Temperature Precipitation Wind Pressure Humidity
    00:00 +2°C° 0 mm 2 mps 746 mmHg 80%
    01:00 +3°C° 0 mm 1 mps 745 mmHg 79%
    02:00 +3°C° 0 mm 1 mps 745 mmHg 79%
    03:00 +3°C° 0 mm 1 mps 745 mmHg 78%
    04:00 +3°C° 0 mm 1 mps 744 mmHg 78%
    05:00 +3°C° 0 mm 1 mps 744 mmHg 77%
    06:00 +3°C° 0 mm 1 mps 744 mmHg 75%
    07:00 +3°C° 0 mm 1 mps 744 mmHg 74%
    08:00 +3°C° 0 mm 1 mps 743 mmHg 72%
    09:00 +5°C° 0 mm 1 mps 743 mmHg 66%
    10:00 +7°C° 0 mm 1 mps 743 mmHg 60%
    11:00 +9°C° 0 mm 1 mps 743 mmHg 54%
    12:00 +10°C° 0 mm 1 mps 742 mmHg 53%
    13:00 +11°C° 0 mm 1 mps 742 mmHg 52%
    14:00 +12°C° 0 mm 1 mps 741 mmHg 50%
    15:00 +10°C° 0 mm 1 mps 741 mmHg 55%
    16:00 +9°C° 0 mm 1 mps 741 mmHg 61%
    17:00 +8°C° 0 mm 1 mps 741 mmHg 66%
    18:00 +8°C° 0 mm 1 mps 740 mmHg 67%
    19:00 +7°C° 0 mm 1 mps 740 mmHg 68%
    20:00 +7°C° 0 mm 1 mps 740 mmHg 70%
    21:00 +7°C° 0 mm 1 mps 740 mmHg 70%
    22:00 +6°C° 0 mm 2 mps 740 mmHg 71%
    23:00 +6°C° 0 mm 2 mps 740 mmHg 71%

    26 November, Monday

    Time Temperature Precipitation Wind Pressure Humidity
    00:00 +7°C° 0 mm 1 mps 739 mmHg 72%
    01:00 +7°C° 0 mm 1 mps 739 mmHg 72%
    02:00 +7°C° 0 mm 1 mps 739 mmHg 73%
    03:00 +7°C° 0 mm 1 mps 739 mmHg 73%
    04:00 +7°C° 0 mm 1 mps 739 mmHg 74%
    05:00 +7°C° 0 mm 1 mps 738 mmHg 74%
    06:00 +7°C° 0 mm 1 mps 738 mmHg 75%
    07:00 +7°C° 0 mm 1 mps 738 mmHg 76%
    08:00 +7°C° 0 mm 1 mps 738 mmHg 78%
    09:00 +8°C° 0.3 mm 1 mps 739 mmHg 78%
    10:00 +8°C° 0.3 mm 1 mps 739 mmHg 78%
    11:00 +9°C° 0.3 mm 1 mps 739 mmHg 79%
    12:00 +10°C° 0.1 mm 1 mps 738 mmHg 77%
    13:00 +10°C° 0.1 mm 1 mps 738 mmHg 75%
    14:00 +10°C° 0.1 mm 0 mps 738 mmHg 73%
    15:00 +9°C° 0 mm 0 mps 738 mmHg 76%
    16:00 +9°C° 0 mm 0 mps 738 mmHg 80%
    17:00 +8°C° 0 mm 0 mps 738 mmHg 84%
    18:00 +9°C° 0 mm 1 mps 738 mmHg 85%
    19:00 +8°C° 0 mm 1 mps 738 mmHg 86%
    20:00 +8°C° 0 mm 1 mps 738 mmHg 87%
    21:00 +8°C° 0 mm 1 mps 738 mmHg 87%
    22:00 +8°C° 0 mm 1 mps 738 mmHg 88%
    23:00 +7°C° 0 mm 1 mps 738 mmHg 88%
    Show more